Flag for Cambodia Weather past 2 weeks in Phnom Penh, Cambodia

Now
97 °F

Scattered clouds.


Feels Like: 103 °F
Forecast: 79 / 94 °F
Wind: 12 mph from Northwest

Location: Phnom-Penh / Pochentong

Current Time: Jun 30, 2015 at 12:49:36 PM

Latest Report: Jun 30, 2015 at 12:30 PM


Visibility: N/A

Pressure: 29.77 "Hg

Humidity: 42%

Dew point: 70 °F

Location of Phnom PenhLocation

Historic Weather in Phnom Penh — Graph

°F

Phnom Penh temperature yesterday

Maximum temperature yesterday: 133 °F (at 4:00 PM)
Minimum temperature yesterday: 81 °F (at 6:00 AM)
Average temperature yesterday: 91 °F

Past Weeks' High & Low Weather Summary

 TemperatureHumidityPressure
High133 °F (Jun 29, 4:00 PM)100% (Jun 17, 11:30 AM)29.89 "Hg (Jun 17, 11:30 AM)
Low55 °F (Jun 17, 11:30 AM)15% (Jun 29, 4:00 PM)29.62 "Hg (Jun 15, 2:30 PM)
Average85 °F69%29.74 "Hg
* Reported Jun 15 11:00 AM — Jun 30 11:30 AM, Phnom Penh, Weather by CustomWeather, © 2015

Note: Actual official high and low records may vary slightly from our data, if they occured in-between our weather recording intervals... More about our weather records

Advertising

Phnom Penh weather history for previous 24 hours

 ConditionsComfort  
Time TempWeatherWind HumidityBarometerVisibility
11:30 AM
Tue, Jun 30
95 °FScattered clouds.9 mph44%29.80 "HgN/A
10:30 AM93 °FPassing clouds.10 mph47%29.83 "HgN/A
10:00 AM93 °FPassing clouds.12 mph49%29.83 "HgN/A
9:30 AM91 °FPassing clouds.14 mph49%29.83 "HgN/A
9:00 AM91 °FPassing clouds.7 mph52%29.83 "HgN/A
8:30 AM90 °FPassing clouds.12 mph55%29.83 "HgN/A
8:00 AM88 °FPassing clouds.10 mph62%29.83 "HgN/A
7:30 AM86 °FPassing clouds.10 mph66%29.83 "HgN/A
7:00 AM84 °FPassing clouds.8 mph74%29.83 "HgN/A
6:30 AM84 °FPassing clouds.7 mph74%29.80 "HgN/A
6:00 AM82 °FPassing clouds.5 mph74%29.80 "Hg6 mi
1:00 AM84 °FClear.6 mph66%29.80 "Hg6 mi
12:30 AM84 °FPassing clouds.7 mph66%29.80 "Hg6 mi
12:00 AM86 °FPassing clouds.8 mph66%29.80 "Hg6 mi
11:30 PM
Mon, Jun 29
86 °FPassing clouds.8 mph66%29.83 "Hg6 mi
11:00 PM86 °FPassing clouds.9 mph66%29.83 "Hg6 mi
10:30 PM86 °FPassing clouds.8 mph66%29.83 "Hg6 mi
10:00 PM86 °FPassing clouds.8 mph66%29.83 "Hg6 mi
9:30 PM86 °FPassing clouds.7 mph66%29.83 "Hg6 mi
9:00 PM86 °FPassing clouds.3 mph66%29.83 "Hg6 mi
8:30 PM86 °FPassing clouds.2 mph62%29.83 "Hg6 mi
8:00 PM86 °FPartly cloudy.3 mph66%29.83 "Hg6 mi
7:30 PM86 °FPartly cloudy.6 mph66%29.80 "Hg6 mi
7:00 PM91 °FPartly cloudy.10 mph56%29.77 "Hg6 mi
6:30 PM93 °FPartly cloudy.12 mph53%29.77 "Hg6 mi
6:00 PM93 °FBroken clouds.9 mph49%29.77 "HgN/A
5:30 PM95 °FBroken clouds.9 mph44%29.74 "HgN/A
5:00 PM97 °FBroken clouds.12 mph44%29.74 "HgN/A
4:30 PM95 °FBroken clouds.9 mph50%29.74 "HgN/A
4:00 PM133 °FBroken clouds.9 mph15%29.74 "HgN/A
3:30 PM97 °FBroken clouds.10 mph44%29.74 "HgN/A
3:00 PM97 °FScattered clouds.9 mph44%29.77 "HgN/A
2:30 PM97 °FScattered clouds.12 mph42%29.77 "HgN/A
2:00 PM97 °FScattered clouds.9 mph42%29.80 "HgN/A
1:30 PM97 °FScattered clouds.9 mph42%29.80 "HgN/A
1:00 PM97 °FScattered clouds.8 mph42%29.83 "HgN/A
12:30 PM95 °FPassing clouds.10 mph44%29.83 "HgN/A
12:00 PM95 °FPassing clouds.9 mph47%29.86 "HgN/A
Weather by CustomWeather, © 2015

See weather overviewHow to use our weather pages